QPF
0.10 0.10 0.09 0.07 0.05 0.03 0.02 0.02 0.02 0.03 0.03 0.02 0.01 0.00 0.00 0.00 0.00 0.00 0.01 0.01 0.02 0.03 0.04 0.05 0.05 0.04 0.04 0.03 0.02 0.01 0.01 0.01 0.01 0.01 0.02 0.02 0.01 0.01 0.01 0.01 0.02 0.01 0.01
0.09 0.10 0.12 0.10 0.07 0.04 0.02 0.01 0.01 0.02 0.02 0.02 0.02 0.01 0.01 0.00 0.00 0.00 0.00 0.01 0.01 0.02 0.05 0.06 0.06 0.05 0.04 0.03 0.02 0.01 0.01 0.01 0.02 0.02 0.02 0.02 0.01 0.01 0.01 0.01 0.02 0.01 0.01
0.08 0.10 0.12 0.13 0.10 0.06 0.03 0.02 0.02 0.02 0.02 0.01 0.01 0.01 0.01 0.01 0.01 0.01 0.00 0.00 0.01 0.02 0.03 0.04 0.05 0.05 0.04 0.04 0.03 0.02 0.02 0.01 0.01 0.01 0.01 0.01 0.01 0.01 0.01 0.01 0.02 0.02 0.02
0.10 0.11 0.12 0.13 0.12 0.08 0.05 0.04 0.03 0.02 0.02 0.01 0.01 0.01 0.01 0.01 0.01 0.01 0.00 0.00 0.00 0.01 0.01 0.02 0.03 0.03 0.04 0.04 0.04 0.03 0.02 0.01 0.01 0.01 0.01 0.01 0.01 0.01 0.01 0.01 0.01 0.02 0.03
0.11 0.12 0.12 0.12 0.12 0.10 0.06 0.05 0.04 0.03 0.02 0.01 0.01 0.01 0.01 0.01 0.01 0.01 0.01 0.00 0.00 0.01 0.01 0.01 0.01 0.02 0.02 0.03 0.04 0.04 0.02 0.01 0.01 0.01 0.01 0.01 0.01 0.01 0.01 0.01 0.01 0.01 0.02
0.11 0.13 0.14 0.13 0.12 0.10 0.07 0.07 0.05 0.03 0.02 0.02 0.01 0.01 0.01 0.01 0.01 0.01 0.01 0.01 0.01 0.01 0.01 0.01 0.01 0.02 0.02 0.03 0.04 0.05 0.03 0.02 0.01 0.01 0.01 0.01 0.01 0.01 0.01 0.01 0.01 0.01 0.01
0.10 0.12 0.13 0.14 0.13 0.10 0.07 0.06 0.07 0.06 0.04 0.03 0.02 0.02 0.02 0.01 0.01 0.01 0.01 0.01 0.01 0.01 0.01 0.01 0.01 0.01 0.01 0.02 0.02 0.04 0.05 0.05 0.03 0.02 0.01 0.01 0.01 0.01 0.01 0.02 0.01 0.01 0.01
0.09 0.12 0.12 0.13 0.13 0.12 0.09 0.07 0.06 0.07 0.06 0.04 0.03 0.03 0.03 0.03 0.02 0.01 0.01 0.02 0.01 0.01 0.01 0.01 0.01 0.01 0.01 0.01 0.02 0.02 0.03 0.05 0.06 0.03 0.02 0.01 0.01 0.01 0.01 0.01 0.01 0.01 0.01
0.10 0.11 0.11 0.11 0.11 0.10 0.09 0.08 0.07 0.06 0.06 0.05 0.03 0.03 0.03 0.03 0.03 0.02 0.02 0.02 0.01 0.02 0.02 0.01 0.01 0.01 0.01 0.01 0.01 0.01 0.02 0.03 0.06 0.06 0.04 0.02 0.02 0.01 0.02 0.02 0.01 0.01 0.01
0.11 0.13 0.12 0.12 0.13 0.10 0.08 0.08 0.08 0.08 0.07 0.05 0.03 0.03 0.02 0.02 0.02 0.02 0.02 0.02 0.01 0.02 0.02 0.03 0.03 0.02 0.02 0.01 0.01 0.01 0.01 0.01 0.03 0.04 0.04 0.03 0.03 0.02 0.02 0.02 0.02 0.02 0.01
0.14 0.13 0.15 0.14 0.15 0.14 0.09 0.08 0.09 0.09 0.08 0.06 0.04 0.03 0.02 0.01 0.01 0.02 0.02 0.02 0.02 0.01 0.02 0.03 0.04 0.03 0.02 0.02 0.02 0.02 0.02 0.01 0.02 0.03 0.04 0.04 0.05 0.05 0.04 0.02 0.02 0.02 0.02
0.13 0.16 0.17 0.16 0.15 0.17 0.14 0.09 0.08 0.09 0.09 0.08 0.05 0.03 0.03 0.02 0.02 0.02 0.02 0.02 0.02 0.01 0.01 0.02 0.03 0.04 0.04 0.03 0.02 0.02 0.02 0.02 0.03 0.04 0.06 0.05 0.05 0.05 0.07 0.07 0.05 0.03 0.02
0.08 0.09 0.14 0.15 0.15 0.15 0.15 0.12 0.08 0.08 0.09 0.08 0.07 0.05 0.03 0.03 0.02 0.02 0.02 0.03 0.02 0.02 0.02 0.01 0.01 0.02 0.03 0.04 0.04 0.03 0.03 0.03 0.03 0.04 0.05 0.06 0.05 0.04 0.04 0.05 0.06 0.04 0.02
0.08 0.07 0.09 0.10 0.11 0.13 0.14 0.13 0.08 0.07 0.08 0.07 0.06 0.05 0.04 0.03 0.02 0.02 0.02 0.03 0.04 0.02 0.02 0.02 0.01 0.01 0.01 0.02 0.03 0.04 0.03 0.03 0.04 0.04 0.04 0.04 0.05 0.05 0.03 0.02 0.02 0.01 0.01
0.06 0.06 0.07 0.09 0.10 0.10 0.12 0.14 0.12 0.08 0.07 0.09 0.07 0.05 0.04 0.03 0.03 0.02 0.02 0.03 0.04 0.04 0.02 0.02 0.02 0.01 0.01 0.01 0.02 0.02 0.02 0.03 0.03 0.03 0.03 0.04 0.04 0.04 0.03 0.02 0.01 0.01 0.01
0.05 0.06 0.07 0.08 0.10 0.10 0.11 0.12 0.12 0.09 0.07 0.08 0.08 0.06 0.04 0.04 0.03 0.03 0.03 0.03 0.03 0.05 0.04 0.02 0.02 0.01 0.01 0.01 0.02 0.02 0.02 0.02 0.02 0.02 0.02 0.03 0.03 0.03 0.03 0.03 0.02 0.01 0.01
0.05 0.05 0.06 0.06 0.08 0.09 0.10 0.10 0.10 0.09 0.07 0.06 0.07 0.07 0.06 0.04 0.04 0.04 0.04 0.03 0.03 0.04 0.05 0.03 0.02 0.02 0.02 0.01 0.01 0.02 0.02 0.02 0.01 0.01 0.01 0.02 0.03 0.04 0.04 0.03 0.02 0.02 0.01
0.07 0.07 0.07 0.07 0.07 0.09 0.09 0.10 0.09 0.09 0.07 0.05 0.04 0.05 0.06 0.05 0.04 0.04 0.04 0.03 0.03 0.03 0.05 0.05 0.03 0.03 0.03 0.02 0.02 0.02 0.02 0.02 0.02 0.02 0.01 0.02 0.03 0.04 0.06 0.05 0.03 0.03 0.02
0.09 0.08 0.08 0.08 0.08 0.09 0.09 0.09 0.09 0.08 0.07 0.05 0.04 0.03 0.04 0.04 0.05 0.04 0.04 0.04 0.03 0.03 0.04 0.05 0.05 0.04 0.04 0.03 0.02 0.02 0.02 0.02 0.02 0.02 0.02 0.02 0.02 0.03 0.05 0.07 0.05 0.04 0.04
0.08 0.09 0.08 0.09 0.09 0.09 0.10 0.09 0.09 0.08 0.06 0.05 0.04 0.03 0.03 0.04 0.04 0.04 0.04 0.04 0.04 0.04 0.04 0.04 0.05 0.05 0.05 0.04 0.03 0.02 0.02 0.02 0.02 0.02 0.02 0.02 0.03 0.03 0.04 0.05 0.06 0.05 0.04
0.08 0.08 0.08 0.09 0.09 0.08 0.08 0.09 0.08 0.08 0.07 0.05 0.04 0.03 0.03 0.03 0.04 0.04 0.04 0.03 0.03 0.04 0.04 0.04 0.05 0.05 0.05 0.05 0.05 0.03 0.02 0.02 0.02 0.01 0.01 0.02 0.02 0.03 0.03 0.04 0.05 0.05 0.05
0.09 0.09 0.09 0.10 0.09 0.09 0.08 0.09 0.08 0.07 0.08 0.06 0.05 0.04 0.04 0.04 0.04 0.05 0.05 0.04 0.03 0.04 0.04 0.05 0.05 0.05 0.05 0.05 0.04 0.04 0.03 0.02 0.02 0.02 0.01 0.01 0.02 0.02 0.03 0.03 0.04 0.04 0.05
0.10 0.11 0.11 0.12 0.10 0.10 0.10 0.10 0.09 0.08 0.09 0.08 0.08 0.06 0.06 0.05 0.06 0.06 0.07 0.07 0.05 0.06 0.06 0.05 0.04 0.03 0.02 0.02 0.03 0.03 0.03 0.02 0.02 0.02 0.02 0.02 0.02 0.02 0.02 0.03 0.04 0.03 0.04
0.07 0.09 0.10 0.11 0.11 0.10 0.11 0.10 0.10 0.09 0.08 0.07 0.07 0.07 0.06 0.05 0.04 0.04 0.05 0.05 0.04 0.03 0.03 0.02 0.02 0.02 0.02 0.02 0.02 0.02 0.02 0.02 0.01 0.01 0.01 0.02 0.01 0.01 0.02 0.02 0.03 0.04 0.04
0.06 0.07 0.08 0.09 0.09 0.10 0.11 0.11 0.09 0.07 0.07 0.07 0.06 0.06 0.05 0.05 0.04 0.04 0.04 0.05 0.04 0.03 0.02 0.02 0.02 0.03 0.03 0.03 0.03 0.03 0.03 0.02 0.02 0.01 0.01 0.01 0.01 0.01 0.02 0.02 0.02 0.03 0.04
0.05 0.06 0.06 0.07 0.07 0.08 0.09 0.11 0.11 0.08 0.07 0.05 0.05 0.05 0.05 0.04 0.04 0.04 0.04 0.04 0.04 0.04 0.03 0.03 0.03 0.04 0.04 0.04 0.04 0.03 0.03 0.03 0.02 0.02 0.01 0.01 0.01 0.01 0.02 0.03 0.02 0.03 0.03
MSLP
1017.04 1017.80 1018.42 1018.90 1019.31 1019.69 1020.09 1020.53 1021.03 1021.56 1022.09 1022.58 1022.99 1023.32 1023.56 1023.74 1023.87 1023.99 1024.13 1024.30 1024.48 1024.68 1024.85 1024.98 1025.04 1025.03 1024.97 1024.87 1024.78 1024.70 1024.68 1024.71 1024.81 1024.95 1025.10 1025.26 1025.39 1025.49 1025.55 1025.58 1025.58 1025.59 1025.59
1016.98 1017.75 1018.36 1018.86 1019.29 1019.71 1020.17 1020.70 1021.28 1021.89 1022.48 1023.02 1023.46 1023.78 1024.00 1024.14 1024.22 1024.31 1024.43 1024.59 1024.79 1025.01 1025.21 1025.37 1025.44 1025.44 1025.36 1025.24 1025.10 1024.98 1024.92 1024.92 1024.99 1025.12 1025.28 1025.45 1025.60 1025.72 1025.81 1025.86 1025.90 1025.94 1025.98
1016.83 1017.60 1018.24 1018.77 1019.26 1019.75 1020.29 1020.90 1021.56 1022.26 1022.92 1023.50 1023.96 1024.28 1024.48 1024.58 1024.64 1024.69 1024.78 1024.93 1025.12 1025.34 1025.56 1025.73 1025.82 1025.82 1025.74 1025.61 1025.45 1025.31 1025.21 1025.18 1025.22 1025.32 1025.46 1025.62 1025.77 1025.90 1026.00 1026.08 1026.15 1026.22 1026.30
1016.62 1017.40 1018.07 1018.66 1019.21 1019.78 1020.41 1021.10 1021.85 1022.60 1023.31 1023.93 1024.41 1024.75 1024.94 1025.04 1025.08 1025.11 1025.18 1025.31 1025.49 1025.70 1025.91 1026.08 1026.18 1026.19 1026.13 1026.00 1025.84 1025.69 1025.58 1025.52 1025.52 1025.58 1025.68 1025.80 1025.92 1026.04 1026.14 1026.23 1026.32 1026.42 1026.53
1016.38 1017.17 1017.87 1018.52 1019.15 1019.80 1020.50 1021.25 1022.05 1022.85 1023.59 1024.23 1024.74 1025.10 1025.32 1025.43 1025.49 1025.53 1025.61 1025.72 1025.89 1026.09 1026.28 1026.44 1026.55 1026.57 1026.52 1026.42 1026.28 1026.13 1026.01 1025.92 1025.88 1025.89 1025.93 1025.99 1026.06 1026.13 1026.21 1026.29 1026.39 1026.52 1026.66
1016.13 1016.92 1017.65 1018.35 1019.04 1019.75 1020.49 1021.28 1022.10 1022.90 1023.65 1024.31 1024.85 1025.25 1025.52 1025.69 1025.81 1025.90 1026.00 1026.13 1026.29 1026.47 1026.65 1026.80 1026.90 1026.94 1026.91 1026.83 1026.72 1026.59 1026.47 1026.36 1026.28 1026.22 1026.19 1026.17 1026.17 1026.19 1026.22 1026.29 1026.39 1026.52 1026.69
1015.88 1016.65 1017.40 1018.14 1018.86 1019.60 1020.36 1021.15 1021.94 1022.73 1023.46 1024.13 1024.69 1025.14 1025.50 1025.76 1025.97 1026.14 1026.30 1026.47 1026.64 1026.81 1026.98 1027.11 1027.20 1027.25 1027.25 1027.21 1027.13 1027.03 1026.92 1026.80 1026.68 1026.56 1026.45 1026.34 1026.26 1026.21 1026.20 1026.23 1026.32 1026.46 1026.65
1015.64 1016.38 1017.13 1017.88 1018.62 1019.36 1020.10 1020.85 1021.60 1022.33 1023.03 1023.68 1024.27 1024.79 1025.24 1025.62 1025.95 1026.23 1026.47 1026.70 1026.89 1027.07 1027.22 1027.34 1027.42 1027.48 1027.51 1027.50 1027.47 1027.41 1027.31 1027.19 1027.03 1026.86 1026.67 1026.49 1026.33 1026.21 1026.15 1026.15 1026.23 1026.37 1026.57
1015.39 1016.10 1016.83 1017.58 1018.32 1019.04 1019.75 1020.44 1021.12 1021.78 1022.43 1023.06 1023.66 1024.24 1024.79 1025.29 1025.74 1026.14 1026.49 1026.78 1027.01 1027.19 1027.33 1027.44 1027.53 1027.59 1027.64 1027.68 1027.69 1027.66 1027.60 1027.48 1027.31 1027.09 1026.85 1026.60 1026.38 1026.20 1026.10 1026.07 1026.14 1026.28 1026.49
1015.14 1015.81 1016.53 1017.27 1018.00 1018.70 1019.36 1019.99 1020.59 1021.18 1021.77 1022.37 1022.98 1023.60 1024.23 1024.84 1025.41 1025.92 1026.35 1026.71 1026.98 1027.17 1027.31 1027.41 1027.50 1027.58 1027.65 1027.73 1027.78 1027.80 1027.76 1027.65 1027.47 1027.24 1026.95 1026.66 1026.39 1026.18 1026.04 1026.01 1026.07 1026.21 1026.42
1014.88 1015.51 1016.22 1016.96 1017.68 1018.37 1019.00 1019.58 1020.12 1020.64 1021.17 1021.73 1022.34 1022.98 1023.66 1024.34 1024.99 1025.59 1026.10 1026.50 1026.80 1027.02 1027.16 1027.26 1027.35 1027.44 1027.55 1027.66 1027.75 1027.81 1027.80 1027.71 1027.54 1027.29 1026.98 1026.67 1026.37 1026.13 1025.98 1025.94 1026.00 1026.15 1026.38
1014.60 1015.21 1015.91 1016.65 1017.39 1018.08 1018.70 1019.25 1019.75 1020.22 1020.71 1021.23 1021.81 1022.46 1023.15 1023.87 1024.57 1025.21 1025.76 1026.20 1026.52 1026.75 1026.90 1027.02 1027.12 1027.23 1027.36 1027.50 1027.63 1027.72 1027.74 1027.67 1027.50 1027.25 1026.94 1026.61 1026.30 1026.05 1025.89 1025.85 1025.91 1026.07 1026.31
1014.30 1014.89 1015.59 1016.34 1017.09 1017.80 1018.44 1018.99 1019.48 1019.93 1020.38 1020.87 1021.42 1022.05 1022.73 1023.44 1024.15 1024.81 1025.37 1025.83 1026.17 1026.42 1026.58 1026.71 1026.84 1026.97 1027.13 1027.30 1027.46 1027.57 1027.61 1027.55 1027.39 1027.14 1026.82 1026.48 1026.16 1025.91 1025.75 1025.70 1025.77 1025.94 1026.18
1014.00 1014.55 1015.24 1016.00 1016.77 1017.50 1018.16 1018.74 1019.24 1019.69 1020.14 1020.60 1021.13 1021.72 1022.37 1023.06 1023.74 1024.39 1024.95 1025.42 1025.77 1026.04 1026.23 1026.39 1026.55 1026.71 1026.90 1027.09 1027.26 1027.39 1027.43 1027.38 1027.22 1026.96 1026.64 1026.30 1025.97 1025.71 1025.54 1025.49 1025.56 1025.73 1025.97
1013.70 1014.20 1014.86 1015.60 1016.37 1017.12 1017.81 1018.42 1018.95 1019.42 1019.86 1020.33 1020.83 1021.39 1022.01 1022.66 1023.32 1023.94 1024.50 1024.97 1025.34 1025.64 1025.87 1026.08 1026.27 1026.47 1026.68 1026.89 1027.07 1027.20 1027.25 1027.19 1027.02 1026.75 1026.43 1026.07 1025.74 1025.46 1025.28 1025.22 1025.27 1025.43 1025.67
1013.46 1013.87 1014.45 1015.14 1015.87 1016.61 1017.31 1017.94 1018.49 1018.99 1019.46 1019.93 1020.43 1020.97 1021.56 1022.18 1022.82 1023.42 1023.98 1024.47 1024.88 1025.22 1025.51 1025.77 1026.01 1026.25 1026.49 1026.71 1026.90 1027.02 1027.06 1026.99 1026.81 1026.54 1026.20 1025.84 1025.49 1025.20 1024.99 1024.90 1024.94 1025.08 1025.31
1013.31 1013.60 1014.06 1014.64 1015.30 1015.98 1016.65 1017.27 1017.83 1018.35 1018.84 1019.33 1019.84 1020.38 1020.96 1021.57 1022.19 1022.81 1023.38 1023.91 1024.37 1024.78 1025.13 1025.45 1025.75 1026.04 1026.30 1026.53 1026.72 1026.84 1026.86 1026.78 1026.60 1026.33 1025.99 1025.63 1025.27 1024.96 1024.74 1024.62 1024.62 1024.73 1024.95
1013.32 1013.45 1013.75 1014.18 1014.71 1015.28 1015.87 1016.45 1016.99 1017.51 1018.02 1018.52 1019.04 1019.59 1020.18 1020.80 1021.44 1022.07 1022.69 1023.27 1023.80 1024.28 1024.71 1025.10 1025.46 1025.79 1026.08 1026.33 1026.51 1026.63 1026.66 1026.58 1026.41 1026.15 1025.83 1025.48 1025.13 1024.81 1024.57 1024.41 1024.38 1024.45 1024.64
1013.54 1013.50 1013.61 1013.85 1014.20 1014.63 1015.10 1015.58 1016.07 1016.56 1017.06 1017.56 1018.10 1018.66 1019.26 1019.90 1020.56 1021.23 1021.90 1022.54 1023.14 1023.70 1024.22 1024.68 1025.10 1025.47 1025.79 1026.05 1026.25 1026.37 1026.41 1026.36 1026.22 1026.00 1025.72 1025.40 1025.07 1024.76 1024.51 1024.33 1024.26 1024.29 1024.44
1014.01 1013.79 1013.71 1013.75 1013.91 1014.15 1014.47 1014.83 1015.23 1015.65 1016.10 1016.59 1017.10 1017.67 1018.28 1018.93 1019.61 1020.32 1021.03 1021.73 1022.40 1023.04 1023.62 1024.15 1024.63 1025.04 1025.39 1025.67 1025.89 1026.03 1026.10 1026.10 1026.01 1025.85 1025.64 1025.38 1025.10 1024.82 1024.57 1024.38 1024.27 1024.27 1024.37
1014.75 1014.38 1014.12 1013.97 1013.93 1013.99 1014.13 1014.34 1014.61 1014.94 1015.31 1015.73 1016.21 1016.73 1017.32 1017.95 1018.64 1019.36 1020.10 1020.84 1021.57 1022.26 1022.91 1023.50 1024.02 1024.47 1024.85 1025.16 1025.41 1025.59 1025.70 1025.76 1025.75 1025.68 1025.55 1025.37 1025.16 1024.94 1024.72 1024.53 1024.40 1024.36 1024.42
1015.72 1015.24 1014.85 1014.54 1014.33 1014.21 1014.18 1014.23 1014.36 1014.55 1014.81 1015.13 1015.51 1015.96 1016.48 1017.07 1017.71 1018.41 1019.15 1019.90 1020.66 1021.38 1022.07 1022.70 1023.26 1023.74 1024.15 1024.50 1024.78 1025.01 1025.19 1025.32 1025.40 1025.43 1025.41 1025.33 1025.21 1025.06 1024.88 1024.72 1024.59 1024.51 1024.53
1016.87 1016.34 1015.86 1015.45 1015.11 1014.85 1014.67 1014.56 1014.53 1014.57 1014.68 1014.86 1015.10 1015.43 1015.83 1016.32 1016.88 1017.51 1018.20 1018.93 1019.67 1020.41 1021.11 1021.76 1022.35 1022.87 1023.31 1023.70 1024.02 1024.30 1024.55 1024.76 1024.94 1025.07 1025.16 1025.19 1025.18 1025.10 1025.00 1024.87 1024.75 1024.67 1024.65
1018.12 1017.60 1017.10 1016.64 1016.22 1015.85 1015.54 1015.30 1015.11 1014.98 1014.92 1014.93 1015.01 1015.16 1015.40 1015.74 1016.16 1016.68 1017.28 1017.94 1018.64 1019.35 1020.05 1020.71 1021.32 1021.86 1022.34 1022.76 1023.14 1023.47 1023.78 1024.07 1024.34 1024.57 1024.77 1024.91 1024.99 1025.01 1024.98 1024.90 1024.81 1024.74 1024.71
1019.39 1018.91 1018.44 1017.97 1017.52 1017.09 1016.69 1016.33 1016.00 1015.71 1015.47 1015.29 1015.17 1015.13 1015.18 1015.33 1015.58 1015.95 1016.42 1016.98 1017.61 1018.27 1018.94 1019.59 1020.21 1020.77 1021.28 1021.74 1022.16 1022.55 1022.92 1023.27 1023.62 1023.93 1024.22 1024.45 1024.63 1024.74 1024.78 1024.77 1024.73 1024.68 1024.65
1020.61 1020.20 1019.78 1019.34 1018.89 1018.43 1017.96 1017.50 1017.06 1016.63 1016.22 1015.85 1015.54 1015.29 1015.14 1015.09 1015.15 1015.34 1015.66 1016.09 1016.61 1017.20 1017.82 1018.45 1019.06 1019.64 1020.18 1020.67 1021.13 1021.56 1021.98 1022.39 1022.79 1023.17 1023.52 1023.83 1024.08 1024.27 1024.39 1024.45 1024.46 1024.46 1024.46
Thickness
5618 5621 5624 5628 5631 5634 5636 5638 5640 5641 5642 5643 5644 5645 5646 5647 5649 5651 5652 5653 5655 5656 5656 5656 5656 5655 5654 5653 5652 5651 5650 5649 5648 5647 5646 5645 5644 5643 5642 5641 5639 5638 5637
5608 5612 5616 5619 5622 5625 5628 5630 5632 5633 5634 5636 5637 5638 5639 5640 5642 5644 5645 5647 5648 5650 5651 5651 5651 5650 5650 5649 5648 5647 5646 5645 5644 5643 5642 5640 5639 5638 5637 5636 5635 5634 5633
5599 5603 5606 5609 5613 5617 5619 5621 5623 5625 5626 5627 5628 5630 5631 5633 5635 5637 5638 5640 5642 5643 5644 5645 5645 5645 5645 5644 5644 5642 5641 5640 5639 5638 5637 5636 5635 5633 5632 5631 5630 5629 5628
5589 5594 5597 5600 5603 5608 5610 5612 5613 5615 5617 5618 5619 5621 5623 5625 5627 5629 5631 5633 5635 5636 5637 5638 5639 5639 5640 5639 5639 5638 5637 5636 5634 5633 5632 5631 5630 5629 5628 5627 5626 5624 5623
5578 5583 5587 5590 5594 5598 5601 5603 5604 5606 5607 5608 5610 5612 5614 5616 5619 5621 5623 5625 5627 5629 5630 5632 5632 5633 5633 5634 5634 5633 5632 5631 5630 5629 5627 5626 5625 5624 5623 5622 5621 5620 5618
5567 5572 5576 5580 5584 5588 5592 5594 5595 5596 5597 5599 5601 5602 5604 5607 5610 5612 5615 5618 5620 5622 5624 5625 5626 5626 5627 5628 5628 5628 5627 5626 5625 5623 5622 5621 5620 5619 5618 5617 5616 5615 5614
5557 5561 5565 5569 5573 5578 5582 5584 5585 5587 5588 5589 5591 5592 5595 5598 5601 5604 5607 5610 5612 5614 5616 5618 5619 5620 5621 5621 5621 5622 5621 5621 5620 5618 5617 5616 5615 5614 5612 5611 5610 5609 5608
5546 5551 5555 5559 5563 5567 5571 5574 5576 5577 5579 5582 5584 5585 5586 5589 5593 5596 5599 5601 5604 5606 5608 5610 5611 5613 5614 5615 5615 5615 5615 5615 5615 5614 5613 5611 5610 5608 5607 5606 5605 5604 5603
5535 5540 5545 5548 5552 5556 5560 5564 5567 5569 5571 5572 5576 5579 5580 5584 5584 5586 5590 5593 5596 5598 5601 5603 5604 5606 5607 5608 5609 5609 5609 5609 5609 5609 5608 5606 5605 5604 5602 5601 5600 5598 5597
5525 5529 5534 5538 5542 5546 5550 5553 5557 5560 5563 5565 5567 5570 5573 5577 5577 5579 5581 5584 5587 5590 5593 5595 5597 5599 5600 5601 5602 5603 5603 5603 5603 5603 5603 5601 5600 5599 5598 5597 5595 5593 5592
5513 5518 5523 5527 5531 5536 5540 5544 5547 5551 5553 5556 5559 5562 5563 5566 5570 5572 5574 5575 5578 5582 5585 5587 5590 5591 5593 5594 5595 5596 5596 5596 5596 5596 5596 5596 5595 5594 5593 5591 5590 5588 5587
5501 5506 5511 5516 5521 5525 5529 5534 5538 5541 5544 5547 5551 5553 5556 5558 5561 5563 5565 5566 5569 5572 5576 5579 5582 5584 5586 5587 5588 5589 5590 5590 5590 5590 5590 5589 5589 5588 5587 5585 5584 5582 5581
5489 5495 5499 5505 5510 5514 5519 5524 5528 5531 5535 5539 5542 5545 5548 5552 5554 5555 5556 5557 5558 5562 5566 5570 5574 5576 5578 5579 5580 5581 5583 5583 5583 5583 5583 5583 5582 5581 5580 5579 5578 5576 5575
5478 5483 5488 5494 5500 5504 5509 5514 5518 5521 5525 5529 5533 5536 5539 5542 5545 5547 5548 5548 5549 5551 5556 5561 5564 5568 5570 5571 5573 5573 5575 5575 5576 5576 5576 5576 5575 5575 5574 5572 5571 5569 5568
5466 5471 5477 5483 5488 5494 5498 5503 5507 5511 5515 5519 5523 5526 5529 5532 5535 5538 5541 5543 5544 5545 5549 5553 5555 5559 5561 5563 5564 5565 5566 5567 5567 5568 5568 5568 5567 5567 5566 5565 5563 5562 5561
5454 5460 5466 5472 5477 5483 5488 5492 5496 5501 5505 5509 5513 5516 5519 5522 5525 5528 5531 5533 5536 5538 5541 5545 5547 5550 5552 5554 5555 5557 5558 5558 5559 5559 5560 5560 5560 5559 5558 5557 5556 5555 5554
5443 5448 5455 5461 5466 5472 5477 5481 5485 5490 5495 5499 5503 5506 5508 5512 5514 5517 5520 5523 5526 5528 5530 5533 5536 5539 5542 5544 5546 5548 5548 5549 5550 5551 5552 5552 5552 5552 5551 5550 5549 5548 5546
5431 5437 5443 5450 5456 5461 5466 5470 5474 5479 5484 5489 5492 5495 5499 5501 5504 5507 5510 5513 5516 5519 5521 5523 5526 5529 5532 5534 5537 5538 5539 5539 5541 5542 5543 5544 5545 5545 5544 5543 5542 5540 5539
5420 5425 5431 5438 5444 5450 5454 5458 5463 5468 5473 5478 5482 5485 5489 5491 5494 5497 5500 5503 5506 5510 5512 5514 5517 5518 5521 5523 5525 5527 5528 5530 5531 5533 5534 5535 5536 5536 5536 5535 5534 5533 5532
5408 5414 5420 5427 5433 5438 5443 5447 5452 5457 5462 5466 5470 5474 5478 5482 5485 5487 5491 5494 5497 5498 5501 5504 5506 5508 5510 5512 5514 5517 5517 5519 5521 5522 5524 5525 5526 5527 5527 5527 5526 5525 5524
5397 5403 5409 5415 5421 5426 5432 5437 5442 5447 5451 5455 5459 5464 5468 5472 5476 5478 5482 5484 5486 5488 5490 5493 5496 5498 5500 5501 5504 5507 5508 5508 5510 5512 5514 5516 5517 5518 5518 5517 5517 5516 5515
5385 5391 5397 5403 5409 5415 5421 5427 5433 5437 5441 5445 5449 5453 5457 5461 5464 5468 5471 5474 5477 5479 5481 5484 5486 5489 5492 5493 5494 5496 5497 5498 5500 5503 5503 5506 5507 5508 5509 5508 5508 5507 5506
5374 5380 5385 5391 5397 5403 5410 5416 5422 5426 5430 5435 5439 5442 5446 5450 5453 5456 5459 5462 5465 5469 5473 5475 5477 5480 5482 5484 5485 5486 5487 5488 5491 5492 5491 5495 5496 5498 5499 5499 5499 5498 5497
5363 5369 5375 5380 5386 5392 5399 5405 5410 5415 5419 5424 5428 5433 5436 5439 5442 5445 5448 5451 5454 5458 5462 5465 5468 5471 5472 5474 5475 5478 5479 5478 5479 5479 5481 5483 5486 5487 5489 5489 5489 5488 5487
5352 5357 5363 5368 5374 5380 5386 5392 5397 5402 5407 5412 5417 5421 5425 5429 5432 5435 5438 5441 5444 5447 5449 5452 5456 5459 5461 5463 5464 5463 5464 5465 5468 5469 5469 5471 5473 5474 5476 5478 5478 5477 5476
5340 5345 5350 5355 5362 5368 5374 5380 5385 5391 5396 5401 5405 5410 5414 5418 5421 5423 5426 5429 5432 5436 5437 5439 5442 5445 5448 5450 5452 5453 5454 5454 5455 5457 5458 5458 5459 5459 5462 5465 5466 5465 5464